"Pseudo-MPEC" for C8JXVN2

Created 2022 Dec 16 5:22:06 UT using Find_Orb

Click here for an explanation of pseudo-MPECs

 
 Astrometry: 
     C8JXVN2*1C2022 11 30.27798503 28 51.359+06 47 16.26   ~BU7M       VNEOCPG96
     C8JXVN2 1C2022 11 30.28316703 28 54.275+06 47 44.27   ~BU7M 21.59GVNEOCPG96
     C8JXVN2 1C2022 11 30.28834703 28 57.270+06 48 14.69   ~BU7M 20.63GVNEOCPG96
     C8JXVN2 1C2022 11 30.29354003 29 00.222+06 48 43.38   ~BU7M 21.41GVNEOCPG96
     C8JXVN2 KC2022 11 30.35609003 29 35.714+06 54 30.06   ~BU97 22.39GVNEOCPI52
     C8JXVN2 KC2022 11 30.35837003 29 36.913+06 54 42.26   ~BU97 21.31GVNEOCPI52
     C8JXVN2 KC2022 11 30.36065003 29 38.314+06 54 55.76   ~BU97 22.26GVNEOCPI52
     C8JXVN2 |C2022 12 01gwMFAstrometryqredacted;+M,#+s8B4N]0$sj.clickxQ=TOw2807
     C8JXVN2 |C2022 12 01id/0Z^@%Chere9=e'E7IOfor9]DJOG2r1uiu0kYPpWDgBKfycjN[807
     C8JXVN2 |C2022 12 01]2Q\f!\pHIh3xW..HB9ry]9uexplanation.ZtKJ#`ai7CU8Z%:)807
     C8JXVN2 KC2022 12 01.17817303 37 10.628+08 03 05.51   ~C157 21.45GVNEOCPI52
     C8JXVN2 KC2022 12 01.18357903 37 13.076+08 03 30.42   ~C157 21.48GVNEOCPI52
     C8JXVN2 KC2022 12 01.18898303 37 15.600+08 03 54.47   ~C157 21.45GVNEOCPI52
     C8JXVN2 KC2022 12 01.19438703 37 18.091+08 04 19.09   ~C157 21.70GVNEOCPI52

Station data:
(807) Cerro Tololo Observatory, La Serena  (S30.169133 W70.805900)  Chile.
   Observer R. Holmes. 0.61-m f/6.5 astrograph + CCD.
(G96) Mt. Lemmon Survey  (N32.442751 W110.788720)  US/Arizona.  Observers T.
   A. Pruyne, B. M. Africano, E. J. Christensen, G. A. Farneth, D. C. Fuls,
   A. R. Gibbs, A. D. Grauer, H. Gröller, J. A. Johnson, R. A. Kowalski, S.
   M. Larson, G. J. Leonard, D. Rankin, R. L. Seaman, F. C. Shelly, K. W.
   Wierzchoś. 1.5-m reflector + 10K CCD.
(I52) Steward Observatory, Mt. Lemmon Station  (N32.442544 W110.788920)
   US/Arizona.  Observers T. A. Pruyne, B. M. Africano, E. J. Christensen, G.
   A. Farneth, D. C. Fuls, A. R. Gibbs, A. D. Grauer, H. Gröller, J. A.
   Johnson, R. A. Kowalski, S. M. Larson, G. J. Leonard, D. Rankin, R. L.
   Seaman, F. C. Shelly, K. W. Wierzchoś. 1.0-m reflector + CCD.

Orbital elements:  C8JXVN2
   Perihelion 2022 Oct 14.56693 +/- 0.0586 TT = 13:36:22 (JD 2459867.06693)
Epoch 2022 Dec  1.0 TT = JDT 2459914.5   Earth MOID: 0.0092   Ve: 0.0770
M  11.96019053 +/- 0.17             Ma: 0.0507                   AutoNEOCP
n   0.25214877 +/- 0.00344          Peri.  131.18120 +/- 0.46
a   2.48140778 +/- 0.0225           Node   224.87476 +/- 0.28
e   0.6898900 +/- 0.00332           Incl.    2.25234 +/- 0.026
P   3.91                   H 26.18  G  0.15   U  8.9
q 0.76950921 +/- 0.00188    Q 4.19330635 +/- 0.0462       (J2000 ecliptic)
From 14 observations 2022 Nov. 30-Dec. 1 (22.0 hr); mean residual 0".40
Residuals in arcseconds: 
221130 G96  .02-  .36+    221130 I52  .80-  .50-    221201 I52  .55+  .07+    
221130 G96  .57-  .80-    221130 I52  .84+  .50+    221201 I52  .24-  .32+    
221130 G96  .11+  .51+    221201 807  .29-  .19+    221201 I52  .21+  .25-    
221130 G96  .08+  .07+    221201 807  .00   .05-    221201 I52  .26+  .20-    
221130 I52  .57+  .19-    221201 807  .32-  .08-    

Ephemerides (geocentric):
Date (UTC) HH   RA             Dec           delta  r     elong  mag " sig PA
---- --------  ------------   ------------  ------ ------ -----  --- --------
2022 12 16 05  04 23 54.810   +14 59 06.95  .24504 1.2192 161.6 24.4 27.8  60
2022 12 16 06  04 23 57.970   +14 59 34.27  .24551 1.2197 161.6 24.4 27.8  60
2022 12 16 07  04 24 01.122   +15 00 01.51  .24599 1.2201 161.6 24.4 27.9  60
2022 12 16 08  04 24 04.266   +15 00 28.68  .24647 1.2205 161.6 24.5 27.9  60
2022 12 16 09  04 24 07.402   +15 00 55.77  .24695 1.2210 161.5 24.5 27.9  60
2022 12 16 10  04 24 10.530   +15 01 22.78  .24743 1.2214 161.5 24.5 28.0  60
2022 12 16 11  04 24 13.649   +15 01 49.72  .24791 1.2218 161.5 24.5 28.0  60
2022 12 16 12  04 24 16.761   +15 02 16.59  .24839 1.2223 161.5 24.5 28.0  60
2022 12 16 13  04 24 19.865   +15 02 43.38  .24886 1.2227 161.4 24.5 28.1  60
2022 12 16 14  04 24 22.961   +15 03 10.10  .24934 1.2231 161.4 24.5 28.1  60
2022 12 16 15  04 24 26.050   +15 03 36.75  .24982 1.2235 161.4 24.5 28.2  60
2022 12 16 16  04 24 29.130   +15 04 03.32  .25030 1.2240 161.4 24.5 28.2  60
2022 12 16 17  04 24 32.203   +15 04 29.82  .25078 1.2244 161.3 24.5 28.2  60
2022 12 16 18  04 24 35.268   +15 04 56.25  .25126 1.2248 161.3 24.5 28.3  60
2022 12 16 19  04 24 38.326   +15 05 22.61  .25174 1.2253 161.3 24.5 28.3  60
2022 12 16 20  04 24 41.376   +15 05 48.89  .25222 1.2257 161.3 24.5 28.3  60
2022 12 16 21  04 24 44.419   +15 06 15.11  .25271 1.2261 161.2 24.5 28.4  60
2022 12 16 22  04 24 47.454   +15 06 41.25  .25319 1.2266 161.2 24.5 28.4  60
2022 12 16 23  04 24 50.482   +15 07 07.33  .25367 1.2270 161.2 24.5 28.4  60
2022 12 17 00  04 24 53.502   +15 07 33.33  .25415 1.2274 161.2 24.5 28.5  60
2022 12 17 01  04 24 56.516   +15 07 59.27  .25463 1.2279 161.1 24.5 28.5  60
2022 12 17 02  04 24 59.522   +15 08 25.14  .25511 1.2283 161.1 24.5 28.5  60
2022 12 17 03  04 25 02.521   +15 08 50.94  .25559 1.2287 161.1 24.6 28.6  60
2022 12 17 04  04 25 05.512   +15 09 16.67  .25608 1.2292 161.1 24.6 28.6  60
2022 12 17 05  04 25 08.497   +15 09 42.34  .25656 1.2296 161.0 24.6 28.7  60
2022 12 17 06  04 25 11.475   +15 10 07.94  .25704 1.2300 161.0 24.6 28.7  60
2022 12 17 07  04 25 14.445   +15 10 33.47  .25752 1.2305 161.0 24.6 28.7  60
2022 12 17 08  04 25 17.409   +15 10 58.93  .25801 1.2309 161.0 24.6 28.8  60
2022 12 17 09  04 25 20.366   +15 11 24.33  .25849 1.2313 160.9 24.6 28.8  60
2022 12 17 10  04 25 23.316   +15 11 49.66  .25897 1.2318 160.9 24.6 28.8  60
2022 12 17 11  04 25 26.259   +15 12 14.93  .25945 1.2322 160.9 24.6 28.9  60
2022 12 17 12  04 25 29.196   +15 12 40.14  .25994 1.2326 160.8 24.6 28.9  60
2022 12 17 13  04 25 32.125   +15 13 05.27  .26042 1.2331 160.8 24.6 28.9  60
2022 12 17 14  04 25 35.048   +15 13 30.35  .26091 1.2335 160.8 24.6 29.0  60
2022 12 17 15  04 25 37.965   +15 13 55.36  .26139 1.2339 160.8 24.6 29.0  60
2022 12 17 16  04 25 40.874   +15 14 20.31  .26187 1.2343 160.7 24.6 29.0  60
2022 12 17 17  04 25 43.778   +15 14 45.19  .26236 1.2348 160.7 24.6 29.0  60
2022 12 17 18  04 25 46.675   +15 15 10.01  .26284 1.2352 160.7 24.6 29.1  60
2022 12 17 19  04 25 49.565   +15 15 34.77  .26333 1.2356 160.7 24.6 29.1  60
2022 12 17 20  04 25 52.449   +15 15 59.47  .26381 1.2361 160.6 24.6 29.1  60
2022 12 17 21  04 25 55.326   +15 16 24.10  .26430 1.2365 160.6 24.6 29.2  60
2022 12 17 22  04 25 58.198   +15 16 48.68  .26478 1.2369 160.6 24.7 29.2  60
2022 12 17 23  04 26 01.063   +15 17 13.19  .26527 1.2374 160.6 24.7 29.2  60
2022 12 18 00  04 26 03.922   +15 17 37.64  .26576 1.2378 160.5 24.7 29.3  61
2022 12 18 01  04 26 06.774   +15 18 02.03  .26624 1.2382 160.5 24.7 29.3  61
2022 12 18 02  04 26 09.621   +15 18 26.36  .26673 1.2387 160.5 24.7 29.3  61
2022 12 18 03  04 26 12.461   +15 18 50.64  .26721 1.2391 160.4 24.7 29.4  61
2022 12 18 04  04 26 15.295   +15 19 14.85  .26770 1.2395 160.4 24.7 29.4  61